Wind_Speed
20 20 19 18 18 19 20 20 20 20 20 21 21 22 22 23 23 23 23 22 22 21 20 20 21 22 22 22 21 21 22 22 22 21 21 22 23 23 24 25 26 27 27
18 18 17 17 17 18 19 19 19 19 19 20 20 20 20 21 22 21 21 20 19 18 17 17 18 19 19 18 19 19 20 20 21 21 20 21 22 22 22 23 24 25 25
16 16 16 17 17 17 18 18 18 18 19 19 19 18 18 19 19 19 19 18 17 15 15 15 15 15 15 15 16 17 18 19 19 20 20 20 21 21 21 22 22 22 23
15 15 16 16 17 17 17 17 17 18 18 18 18 18 18 18 18 17 16 15 14 13 14 14 14 13 13 13 14 15 16 17 18 19 19 18 18 19 19 19 19 20 20
14 15 15 16 16 17 17 16 16 17 17 17 17 17 17 17 17 16 14 13 12 12 12 12 11 12 12 12 13 13 14 15 16 16 16 15 15 16 16 16 16 16 16
14 15 14 14 15 15 16 15 15 14 14 14 15 16 16 16 15 14 14 12 12 11 10 9 10 10 11 11 11 12 12 13 12 13 13 13 13 13 13 13 14 15 15
13 13 13 14 14 13 13 14 13 12 12 13 14 15 15 14 14 15 14 12 11 10 9 9 9 9 10 10 10 11 11 11 11 10 10 10 10 10 11 11 12 13 13
12 12 12 12 12 11 11 11 11 11 12 13 14 14 14 13 13 13 12 11 10 10 9 9 9 9 10 9 9 9 9 9 9 8 8 7 7 8 8 9 10 10 11
10 10 10 11 11 11 10 10 10 11 12 13 13 13 13 12 12 12 11 10 9 9 9 8 8 9 9 9 8 8 9 9 8 7 7 6 7 7 7 7 8 9 9
8 8 8 9 10 10 10 10 10 10 11 12 12 13 12 12 12 11 10 10 9 9 8 8 9 9 8 9 8 8 8 8 8 7 6 7 6 6 6 6 7 7 7
7 7 7 8 8 8 9 9 10 10 11 11 12 12 12 12 11 11 10 9 9 8 8 8 8 8 8 8 8 8 8 8 7 6 6 6 6 6 6 6 7 7 8
6 7 7 7 7 8 8 8 9 10 11 11 12 12 11 11 11 10 10 9 9 9 9 8 8 8 8 8 8 8 8 8 7 7 6 6 6 6 6 6 7 8 9
5 5 5 6 6 6 7 8 9 10 11 11 11 11 11 11 11 10 10 9 9 9 9 9 9 8 8 8 8 8 7 7 7 7 7 7 7 6 6 7 7 8 9
3 3 4 4 4 6 7 8 9 10 10 11 11 10 10 10 10 11 10 10 10 10 9 9 9 9 9 9 9 8 8 8 8 8 8 8 7 8 9 10 10 10 11
3 3 3 4 5 6 7 8 9 9 10 10 10 10 10 10 10 11 11 11 11 10 11 11 10 10 10 9 9 9 10 10 10 10 10 9 9 10 10 11 11 12 13
1 2 3 3 4 6 7 8 9 10 10 11 11 11 11 11 11 11 12 12 12 12 12 12 11 11 11 11 11 11 12 12 12 12 12 12 12 12 12 13 13 14 14
2 2 2 3 5 6 7 8 9 10 10 10 11 11 11 11 11 12 13 13 13 13 13 13 13 13 13 12 13 12 13 13 14 14 14 14 14 14 15 15 15 15 16
1 2 3 4 5 7 8 9 10 10 10 10 11 11 11 12 12 13 13 14 14 14 14 14 14 14 14 14 14 14 14 15 16 16 16 16 16 16 17 17 17 17 18
1 2 3 4 6 7 8 9 10 10 10 10 11 12 13 14 14 14 15 15 15 15 15 15 15 16 16 16 16 16 17 17 17 18 18 18 18 18 18 19 19 20 20
1 2 3 5 6 8 9 10 10 11 11 11 12 13 14 15 16 16 17 17 17 17 17 18 18 18 18 17 17 18 18 19 20 20 20 20 20 20 21 21 22 22 23
2 3 4 6 7 8 9 11 11 12 12 13 14 15 16 17 17 18 18 19 19 19 19 20 20 20 20 20 20 21 21 21 21 22 22 22 22 23 24 24 25 25 26
2 4 6 7 8 9 10 11 12 13 13 14 16 17 18 18 18 19 20 21 21 21 21 21 22 22 23 23 23 23 23 23 23 24 24 25 26 26 27 27 28 28 28
3 5 7 8 9 10 12 13 14 14 15 16 17 18 19 19 20 20 21 22 22 23 23 23 24 24 24 24 24 24 25 25 25 25 26 27 28 28 29 29 29 30 31
5 6 8 9 10 12 13 14 15 16 17 18 19 20 20 21 21 22 23 24 24 25 26 26 26 26 26 26 26 26 27 27 28 28 29 30 30 30 31 31 32 32 32
7 8 9 10 12 13 14 15 16 18 19 20 20 21 22 23 24 25 25 26 26 27 27 28 27 27 27 27 28 28 29 29 30 31 31 31 32 32 33 33 33 34 34
8 10 11 12 13 14 15 17 18 19 20 21 21 22 24 25 26 27 27 28 28 29 29 28 28 28 28 28 29 30 31 31 31 32 32 32 33 33 33 33 33 33 34
Wind_Direction
289 293 296 301 304 307 308 308 308 307 307 307 306 303 301 301 301 302 301 300 296 293 289 286 283 280 276 276 271 270 270 271 271 273 272 267 266 266 264 263 262 262 262
289 292 297 303 306 308 310 311 313 312 312 311 310 307 307 307 305 303 304 302 300 296 293 290 288 286 280 275 272 272 273 273 272 273 275 271 266 265 266 265 264 263 262
288 292 298 303 306 310 312 313 314 314 315 314 314 315 313 312 310 307 306 304 303 298 294 295 295 293 288 285 280 277 276 274 274 274 274 273 271 268 266 266 264 263 263
291 295 299 302 306 309 312 314 316 315 314 316 317 316 316 317 318 316 315 313 311 306 301 301 301 301 299 293 290 287 281 279 277 277 276 275 274 272 268 266 264 261 260
294 298 301 303 305 307 312 315 317 317 318 318 321 322 322 323 325 326 322 321 319 315 310 307 307 304 301 296 292 291 289 286 285 284 279 277 276 274 269 264 263 260 258
296 297 298 301 304 307 310 316 321 322 324 327 327 326 327 328 331 331 328 323 321 321 319 315 313 312 310 308 305 303 302 298 295 291 286 278 277 273 269 263 262 258 256
294 295 298 300 305 309 313 320 325 329 331 332 333 331 330 331 330 331 333 330 328 327 325 321 320 322 324 322 319 316 316 314 304 298 293 288 284 277 270 264 259 255 253
289 294 300 304 307 313 319 323 326 330 334 336 338 338 337 338 338 338 335 334 331 332 330 327 326 327 329 328 329 327 326 324 318 312 303 296 288 279 271 262 255 250 249
289 299 304 306 308 314 318 319 324 328 332 335 338 340 340 340 340 340 341 342 337 335 337 333 328 328 327 325 326 326 326 326 326 326 318 305 294 280 267 262 258 254 254
292 300 305 309 315 317 319 322 325 327 330 335 338 342 344 345 346 346 346 348 346 341 339 336 334 333 332 331 330 330 330 326 320 318 318 314 310 300 279 266 259 254 254
292 300 307 312 317 320 320 323 325 327 332 336 340 342 345 347 349 350 352 353 351 350 349 346 348 349 347 346 344 341 337 335 329 324 317 313 312 307 295 280 264 256 261
292 298 306 310 315 320 323 327 329 332 336 338 340 343 348 351 351 352 354 354 351 348 347 353 355 353 352 349 345 343 343 345 342 329 316 310 304 300 298 293 280 271 271
296 305 315 318 322 328 331 333 334 334 334 335 339 342 346 350 349 346 347 349 348 346 345 344 348 347 347 349 347 344 344 343 337 332 324 309 297 293 294 294 290 286 281
299 316 325 328 330 336 340 342 343 342 340 340 341 343 345 348 348 346 346 346 345 345 344 341 338 335 336 338 338 336 333 333 332 327 322 317 308 299 296 293 288 285 284
295 308 317 323 328 337 342 343 345 347 348 350 349 347 346 345 345 346 344 344 344 343 341 339 337 331 327 325 324 323 323 321 320 319 317 313 307 302 301 302 297 290 286
298 321 332 340 339 341 343 343 341 343 348 351 352 351 349 346 346 345 343 342 342 341 338 333 330 327 324 320 316 313 312 312 311 311 310 307 304 303 302 299 296 292 291
284 317 333 339 339 335 342 343 341 342 342 343 345 345 345 344 342 340 338 337 336 334 333 329 326 324 319 315 313 310 309 307 306 304 304 304 303 301 302 300 298 296 294
304 338 345 341 342 342 343 342 341 342 342 342 341 342 341 338 335 334 333 332 330 330 329 327 323 321 318 317 314 311 308 307 306 304 302 301 302 301 300 298 296 297 296
348 343 342 345 343 342 344 343 341 339 338 338 339 339 339 337 333 331 329 327 325 323 322 322 320 318 317 314 312 311 309 306 305 304 302 300 299 300 299 298 296 294 295
346 341 346 348 347 344 343 342 340 337 335 334 334 335 335 333 331 328 327 325 323 320 318 316 315 314 313 313 311 309 308 306 304 303 301 299 298 297 296 296 297 296 295
357 346 343 341 341 341 339 338 338 336 335 333 332 331 330 328 327 325 324 323 322 319 316 314 313 311 309 307 307 306 305 304 302 301 301 301 299 297 295 294 294 294 294
353 348 346 345 343 342 341 339 337 336 333 332 331 330 328 327 326 324 323 322 320 318 315 313 311 309 308 307 305 304 305 305 303 302 301 300 299 298 297 295 294 293 293
341 341 341 341 341 339 336 334 333 333 332 331 331 331 330 328 327 326 324 323 321 319 317 315 312 309 307 306 305 303 302 301 301 300 300 299 298 297 297 296 296 295 294
342 340 340 339 337 335 334 334 333 332 331 330 330 330 329 328 327 326 324 323 321 319 317 316 314 313 311 309 307 304 301 300 299 297 297 296 295 294 294 293 293 293 294
348 345 341 337 336 335 335 334 333 332 331 331 330 329 327 327 326 325 324 322 321 319 317 316 315 313 311 309 308 306 304 301 299 298 298 296 295 294 294 293 293 294 294
348 345 341 339 338 336 335 334 333 332 331 330 328 327 326 325 325 324 323 322 321 319 318 316 314 313 312 310 308 306 305 303 300 300 299 298 297 295 294 295 295 295 295
Height
5794 5792 5790 5788 5785 5783 5780 5777 5774 5771 5767 5764 5761 5758 5755 5752 5749 5747 5744 5741 5738 5736 5734 5733 5731 5729 5728 5727 5726 5724 5724 5724 5723 5723 5722 5721 5721 5721 5722 5722 5723 5724 5725
5789 5788 5786 5783 5781 5779 5776 5772 5769 5766 5763 5760 5757 5753 5750 5747 5744 5741 5738 5735 5733 5731 5729 5727 5725 5724 5722 5721 5720 5719 5718 5718 5717 5717 5716 5715 5715 5715 5716 5716 5716 5717 5718
5785 5783 5782 5780 5777 5775 5772 5769 5765 5762 5759 5756 5753 5749 5746 5742 5739 5736 5733 5730 5728 5726 5724 5722 5721 5719 5718 5716 5715 5714 5713 5712 5712 5711 5710 5710 5709 5709 5709 5709 5710 5710 5711
5781 5779 5778 5776 5773 5771 5768 5765 5762 5759 5756 5752 5749 5745 5742 5738 5735 5732 5729 5726 5724 5722 5721 5719 5717 5716 5714 5713 5711 5710 5709 5708 5707 5706 5705 5704 5704 5703 5703 5703 5703 5704 5705
5777 5775 5774 5772 5769 5767 5764 5761 5758 5755 5753 5749 5746 5742 5739 5736 5733 5730 5727 5724 5722 5719 5718 5716 5714 5713 5711 5710 5708 5707 5705 5704 5702 5701 5700 5699 5699 5698 5698 5698 5699 5699 5700
5772 5771 5769 5768 5766 5763 5761 5758 5755 5752 5750 5747 5744 5740 5737 5734 5731 5728 5725 5722 5720 5717 5715 5714 5712 5710 5709 5707 5705 5703 5702 5700 5699 5698 5696 5695 5695 5695 5694 5694 5694 5695 5696
5768 5767 5766 5764 5762 5760 5758 5756 5753 5750 5748 5745 5742 5738 5735 5732 5729 5726 5723 5721 5718 5716 5714 5712 5710 5709 5707 5705 5703 5701 5699 5697 5696 5695 5693 5692 5692 5691 5691 5691 5691 5691 5692
5765 5764 5763 5761 5759 5758 5756 5754 5751 5749 5746 5743 5740 5737 5733 5730 5728 5725 5722 5719 5717 5715 5713 5711 5709 5707 5705 5703 5702 5700 5698 5696 5694 5692 5691 5690 5689 5689 5688 5688 5688 5688 5689
5762 5761 5760 5758 5757 5755 5754 5752 5750 5747 5745 5742 5738 5735 5732 5729 5726 5724 5721 5718 5716 5714 5712 5710 5707 5706 5704 5702 5700 5698 5697 5695 5693 5691 5690 5689 5688 5687 5686 5686 5686 5686 5687
5759 5758 5757 5756 5755 5753 5752 5750 5747 5745 5743 5740 5737 5734 5731 5728 5725 5723 5720 5718 5715 5713 5711 5708 5706 5705 5703 5701 5699 5697 5696 5694 5692 5690 5689 5688 5686 5685 5685 5684 5684 5684 5685
5757 5756 5755 5754 5753 5751 5750 5748 5746 5743 5741 5738 5735 5733 5730 5727 5724 5722 5719 5717 5715 5712 5710 5708 5706 5704 5702 5700 5698 5697 5695 5693 5691 5689 5688 5686 5685 5684 5683 5683 5682 5682 5682
5754 5754 5753 5752 5751 5750 5748 5746 5744 5742 5739 5737 5734 5732 5729 5726 5724 5721 5719 5717 5714 5712 5710 5707 5706 5703 5701 5699 5698 5696 5694 5692 5690 5688 5687 5685 5684 5683 5682 5682 5681 5680 5680
5752 5752 5751 5750 5749 5748 5746 5744 5742 5740 5738 5735 5733 5731 5728 5726 5723 5721 5718 5716 5714 5711 5709 5707 5705 5703 5701 5699 5697 5695 5693 5691 5690 5688 5686 5685 5683 5682 5681 5680 5679 5679 5678
5751 5750 5750 5749 5748 5746 5745 5743 5741 5739 5736 5734 5732 5730 5727 5725 5723 5720 5718 5715 5713 5711 5709 5706 5704 5702 5700 5698 5696 5694 5692 5691 5689 5687 5685 5684 5682 5681 5680 5678 5677 5676 5675
5749 5749 5748 5747 5746 5745 5744 5742 5740 5738 5736 5734 5731 5729 5727 5724 5722 5719 5717 5714 5712 5710 5707 5705 5703 5701 5699 5697 5695 5694 5691 5689 5687 5685 5684 5682 5681 5679 5677 5676 5675 5673 5672
5748 5748 5747 5746 5745 5744 5743 5741 5739 5737 5735 5733 5731 5728 5726 5724 5721 5719 5716 5713 5711 5708 5706 5704 5701 5699 5697 5695 5693 5691 5690 5688 5685 5683 5682 5680 5678 5676 5675 5673 5671 5670 5668
5748 5747 5746 5746 5745 5744 5742 5740 5739 5737 5734 5732 5730 5728 5725 5723 5720 5718 5715 5712 5710 5707 5704 5702 5699 5697 5695 5693 5691 5689 5687 5685 5682 5680 5679 5677 5675 5673 5671 5669 5667 5666 5664
5747 5746 5746 5745 5744 5743 5741 5739 5737 5735 5733 5731 5729 5727 5724 5722 5719 5716 5713 5711 5708 5705 5702 5700 5697 5695 5692 5690 5688 5685 5683 5681 5679 5677 5675 5673 5671 5669 5667 5664 5663 5661 5658
5746 5746 5745 5744 5743 5742 5740 5739 5736 5734 5732 5730 5728 5725 5723 5720 5717 5714 5711 5709 5705 5703 5700 5697 5694 5692 5689 5687 5684 5682 5680 5677 5675 5673 5670 5668 5666 5664 5661 5659 5657 5655 5653
5746 5746 5745 5744 5743 5741 5739 5737 5735 5733 5731 5728 5726 5724 5721 5718 5715 5712 5709 5706 5702 5699 5696 5694 5691 5688 5685 5683 5680 5678 5675 5673 5670 5668 5665 5663 5660 5658 5656 5653 5651 5649 5646
5746 5745 5745 5743 5742 5740 5738 5736 5734 5732 5729 5727 5724 5721 5718 5715 5712 5709 5706 5702 5699 5695 5692 5689 5686 5683 5680 5678 5675 5672 5670 5667 5664 5662 5659 5657 5654 5652 5649 5647 5644 5642 5639
5746 5745 5744 5743 5741 5739 5737 5735 5732 5730 5727 5724 5722 5718 5715 5712 5709 5705 5702 5698 5694 5691 5688 5684 5681 5678 5675 5672 5669 5666 5663 5661 5658 5655 5652 5650 5647 5645 5642 5639 5636 5633 5631
5745 5744 5743 5742 5740 5738 5736 5733 5730 5727 5725 5721 5718 5715 5712 5708 5705 5701 5698 5694 5690 5686 5682 5678 5675 5672 5668 5665 5662 5659 5656 5653 5650 5647 5644 5642 5639 5636 5633 5630 5627 5624 5622
5745 5744 5742 5740 5739 5736 5734 5731 5728 5725 5722 5719 5715 5712 5708 5705 5701 5697 5693 5689 5685 5681 5676 5672 5668 5665 5661 5657 5654 5651 5648 5645 5642 5639 5635 5632 5629 5627 5624 5620 5617 5615 5612
5744 5743 5741 5739 5737 5734 5731 5729 5725 5722 5719 5715 5712 5708 5705 5701 5697 5692 5688 5684 5679 5675 5670 5666 5662 5658 5654 5650 5646 5643 5639 5636 5632 5629 5625 5622 5619 5616 5613 5610 5607 5604 5601
5744 5742 5740 5737 5735 5732 5729 5726 5723 5720 5716 5712 5708 5705 5701 5696 5692 5687 5682 5678 5673 5668 5663 5659 5654 5650 5646 5642 5638 5634 5630 5627 5623 5619 5615 5612 5609 5606 5602 5599 5596 5593 5590